Location: Home
(42.5358°N, 72.7383°W)
Time: 10:11:58
(UTC-04:00)

First-Move - Pass Details

Date: 20 August 2022
Orbit: 556 x 629 km, 97.7° (Epoch: 27 September)

Event Time Altitude Azimuth Distance (km) Brightness Sun altitude
Rises 03:55:15 0° 27° (NNE) 2,862 ? -21.2°
Reaches altitude 10° 03:57:58 10° 45° (NE) 1,927 ? -20.8°
Maximum altitude 04:01:03 20° 93° (E) 1,368 ? -20.4°
Drops below altitude 10° 04:04:03 10° 141° (SE) 1,868 ? -20.0°
Enters shadow 04:05:44 - 154° (SSE) 2,423 ? -19.7°
